GEFSGL_prec_meanprecacc_048.txt.gz
Total_Precipitation_Accumulation
0.02 0.02 0.02 0.06 0.10 0.14 0.18 0.19 0.20 0.19 0.17 0.15 0.14 0.14 0.12 0.12 0.13 0.16 0.18 0.20 0.24 0.30 0.37 0.42 0.46 0.54 0.61 0.62 0.67 0.69 0.72 0.82 0.76 0.65 0.75 0.82 0.72 0.53 0.40 0.35 0.31 0.25 0.20
0.02 0.02 0.01 0.01 0.03 0.06 0.11 0.14 0.16 0.16 0.15 0.15 0.14 0.13 0.10 0.10 0.13 0.18 0.20 0.21 0.23 0.27 0.34 0.44 0.48 0.49 0.55 0.63 0.75 0.78 0.80 0.91 0.90 0.76 0.83 0.92 0.82 0.68 0.51 0.39 0.27 0.21 0.18
0.01 0.01 0.01 0.01 0.01 0.02 0.05 0.08 0.11 0.13 0.14 0.14 0.14 0.12 0.10 0.09 0.10 0.13 0.17 0.21 0.25 0.27 0.31 0.39 0.47 0.55 0.58 0.62 0.72 0.77 0.83 0.99 1.03 0.95 0.94 1.04 1.07 0.85 0.59 0.40 0.27 0.20 0.15
0.01 0.01 0.01 0.02 0.02 0.02 0.02 0.04 0.06 0.09 0.12 0.14 0.15 0.15 0.14 0.12 0.09 0.09 0.10 0.14 0.19 0.24 0.33 0.36 0.41 0.52 0.60 0.64 0.72 0.84 0.93 1.02 1.10 1.08 1.12 1.22 1.21 1.08 0.79 0.48 0.34 0.23 0.15
0.05 0.05 0.06 0.06 0.06 0.05 0.05 0.05 0.06 0.08 0.11 0.15 0.17 0.17 0.17 0.15 0.09 0.09 0.12 0.11 0.14 0.17 0.23 0.30 0.32 0.37 0.47 0.58 0.67 0.77 0.93 1.08 1.25 1.31 1.32 1.48 1.43 1.22 0.94 0.60 0.42 0.29 0.20
0.05 0.05 0.05 0.05 0.05 0.06 0.06 0.06 0.07 0.10 0.15 0.20 0.21 0.22 0.21 0.14 0.10 0.09 0.10 0.11 0.14 0.17 0.20 0.26 0.26 0.27 0.31 0.37 0.48 0.62 0.77 0.93 1.13 1.31 1.44 1.54 1.58 1.42 1.20 0.93 0.55 0.29 0.22
0.03 0.03 0.03 0.05 0.05 0.07 0.07 0.08 0.10 0.14 0.19 0.24 0.26 0.28 0.27 0.27 0.19 0.13 0.09 0.12 0.15 0.19 0.21 0.23 0.19 0.17 0.24 0.27 0.32 0.40 0.51 0.63 0.78 0.99 1.19 1.29 1.46 1.55 1.38 1.08 0.74 0.45 0.25
0.02 0.03 0.04 0.06 0.08 0.09 0.13 0.15 0.19 0.22 0.24 0.27 0.28 0.31 0.34 0.32 0.24 0.16 0.13 0.14 0.18 0.20 0.23 0.24 0.23 0.21 0.22 0.27 0.30 0.30 0.31 0.36 0.45 0.57 0.75 0.99 1.19 1.38 1.38 1.27 1.11 0.77 0.47
0.03 0.05 0.06 0.09 0.11 0.14 0.16 0.22 0.29 0.32 0.30 0.34 0.37 0.39 0.41 0.40 0.31 0.19 0.15 0.18 0.24 0.24 0.25 0.27 0.29 0.24 0.20 0.20 0.27 0.28 0.27 0.27 0.30 0.39 0.53 0.75 1.00 1.17 1.32 1.28 1.14 0.91 0.63
0.07 0.08 0.10 0.14 0.18 0.21 0.24 0.29 0.33 0.38 0.38 0.41 0.44 0.49 0.52 0.52 0.41 0.24 0.19 0.22 0.29 0.31 0.35 0.36 0.34 0.29 0.26 0.18 0.23 0.25 0.23 0.23 0.25 0.26 0.35 0.49 0.65 0.90 1.09 1.10 0.97 0.81 0.62
0.11 0.11 0.13 0.17 0.22 0.25 0.32 0.36 0.38 0.40 0.42 0.46 0.49 0.54 0.61 0.64 0.53 0.28 0.21 0.27 0.34 0.39 0.40 0.40 0.39 0.33 0.27 0.20 0.20 0.24 0.22 0.24 0.28 0.29 0.30 0.39 0.53 0.69 0.90 0.99 0.95 0.76 0.55
0.13 0.14 0.14 0.17 0.18 0.21 0.31 0.35 0.39 0.46 0.48 0.51 0.57 0.64 0.70 0.73 0.65 0.43 0.24 0.24 0.35 0.47 0.51 0.52 0.51 0.43 0.35 0.29 0.23 0.21 0.21 0.23 0.31 0.33 0.35 0.37 0.45 0.55 0.71 0.91 0.99 0.88 0.64
0.16 0.16 0.17 0.18 0.22 0.27 0.33 0.34 0.36 0.40 0.41 0.46 0.61 0.76 0.83 0.83 0.73 0.51 0.32 0.24 0.30 0.43 0.54 0.65 0.64 0.53 0.47 0.41 0.32 0.25 0.23 0.22 0.27 0.32 0.30 0.31 0.35 0.44 0.58 0.82 1.00 1.07 0.92
0.20 0.19 0.20 0.22 0.24 0.28 0.36 0.38 0.37 0.37 0.37 0.42 0.59 0.73 0.83 0.83 0.74 0.55 0.40 0.31 0.33 0.40 0.48 0.59 0.68 0.68 0.64 0.57 0.47 0.34 0.26 0.25 0.25 0.29 0.32 0.34 0.40 0.48 0.57 0.64 0.82 0.95 0.97
0.24 0.23 0.23 0.26 0.28 0.29 0.35 0.38 0.33 0.33 0.30 0.31 0.47 0.70 0.76 0.71 0.57 0.45 0.40 0.42 0.40 0.44 0.52 0.69 0.83 0.85 0.84 0.76 0.62 0.47 0.34 0.31 0.30 0.30 0.35 0.37 0.42 0.45 0.49 0.51 0.60 0.71 0.69
0.30 0.27 0.26 0.27 0.28 0.30 0.34 0.34 0.26 0.19 0.16 0.14 0.19 0.34 0.47 0.42 0.34 0.30 0.29 0.30 0.29 0.30 0.42 0.68 0.93 0.98 0.98 0.92 0.78 0.60 0.46 0.38 0.35 0.34 0.35 0.35 0.36 0.40 0.44 0.47 0.49 0.57 0.58
0.34 0.31 0.29 0.27 0.27 0.27 0.29 0.34 0.38 0.33 0.18 0.12 0.10 0.14 0.19 0.20 0.22 0.29 0.31 0.24 0.20 0.19 0.28 0.49 0.75 0.92 0.97 0.97 0.86 0.69 0.53 0.45 0.44 0.40 0.38 0.35 0.34 0.35 0.38 0.43 0.45 0.49 0.53
0.30 0.29 0.27 0.25 0.25 0.26 0.29 0.33 0.35 0.42 0.42 0.32 0.18 0.11 0.11 0.11 0.16 0.32 0.40 0.28 0.20 0.16 0.22 0.34 0.56 0.79 0.87 0.90 0.84 0.73 0.63 0.56 0.53 0.48 0.43 0.39 0.35 0.34 0.33 0.36 0.38 0.40 0.43
0.29 0.25 0.21 0.20 0.22 0.25 0.30 0.31 0.32 0.38 0.47 0.53 0.45 0.20 0.13 0.12 0.16 0.37 0.50 0.34 0.25 0.21 0.20 0.25 0.39 0.60 0.73 0.79 0.76 0.70 0.65 0.60 0.56 0.52 0.48 0.42 0.38 0.36 0.32 0.29 0.32 0.38 0.38
0.24 0.20 0.15 0.15 0.18 0.24 0.27 0.27 0.31 0.40 0.50 0.59 0.58 0.32 0.17 0.16 0.22 0.42 0.54 0.40 0.31 0.28 0.23 0.24 0.31 0.45 0.59 0.69 0.69 0.63 0.62 0.61 0.59 0.54 0.50 0.45 0.39 0.35 0.33 0.29 0.28 0.30 0.30
0.23 0.19 0.14 0.13 0.18 0.21 0.24 0.28 0.33 0.43 0.53 0.60 0.52 0.27 0.16 0.19 0.29 0.45 0.55 0.43 0.34 0.33 0.29 0.27 0.29 0.39 0.48 0.57 0.56 0.53 0.55 0.58 0.54 0.50 0.47 0.44 0.39 0.35 0.34 0.31 0.26 0.25 0.27
0.20 0.17 0.15 0.16 0.18 0.21 0.22 0.29 0.35 0.46 0.55 0.58 0.44 0.23 0.17 0.23 0.30 0.41 0.44 0.38 0.33 0.30 0.28 0.27 0.30 0.37 0.41 0.44 0.43 0.44 0.48 0.52 0.49 0.45 0.44 0.43 0.39 0.35 0.33 0.33 0.31 0.29 0.29
0.19 0.17 0.16 0.16 0.18 0.15 0.19 0.28 0.32 0.39 0.48 0.50 0.37 0.27 0.24 0.30 0.31 0.35 0.39 0.37 0.33 0.30 0.28 0.30 0.33 0.35 0.36 0.35 0.32 0.33 0.38 0.41 0.39 0.38 0.39 0.39 0.37 0.34 0.31 0.30 0.30 0.29 0.28
0.17 0.16 0.14 0.13 0.13 0.14 0.18 0.22 0.24 0.28 0.36 0.38 0.31 0.28 0.28 0.31 0.32 0.32 0.34 0.33 0.32 0.31 0.31 0.31 0.31 0.32 0.34 0.32 0.30 0.31 0.32 0.34 0.34 0.35 0.34 0.33 0.32 0.31 0.29 0.26 0.27 0.28 0.27
0.18 0.17 0.14 0.14 0.13 0.13 0.15 0.19 0.23 0.26 0.26 0.25 0.24 0.25 0.29 0.33 0.33 0.33 0.32 0.32 0.32 0.31 0.31 0.31 0.32 0.32 0.32 0.29 0.26 0.26 0.27 0.29 0.33 0.36 0.34 0.32 0.30 0.30 0.28 0.26 0.26 0.30 0.30
0.17 0.20 0.19 0.19 0.17 0.16 0.16 0.18 0.22 0.22 0.18 0.15 0.18 0.24 0.31 0.34 0.34 0.34 0.31 0.29 0.30 0.32 0.32 0.31 0.31 0.32 0.30 0.26 0.23 0.24 0.26 0.27 0.31 0.35 0.32 0.32 0.31 0.29 0.29 0.28 0.28 0.29 0.29

GEFSGL_prec_meanprecacc_054.txt.gz
Total_Precipitation_Accumulation
0.02 0.02 0.02 0.06 0.10 0.14 0.18 0.19 0.20 0.19 0.18 0.15 0.14 0.14 0.12 0.12 0.14 0.16 0.19 0.21 0.24 0.30 0.37 0.42 0.47 0.54 0.61 0.63 0.68 0.69 0.72 0.83 0.77 0.66 0.76 0.84 0.75 0.56 0.46 0.45 0.45 0.41 0.36
0.02 0.02 0.01 0.01 0.03 0.06 0.11 0.14 0.16 0.16 0.15 0.15 0.14 0.13 0.10 0.10 0.13 0.18 0.20 0.21 0.24 0.27 0.34 0.44 0.48 0.50 0.55 0.63 0.75 0.78 0.80 0.92 0.91 0.77 0.85 0.94 0.84 0.71 0.56 0.48 0.38 0.35 0.34
0.01 0.01 0.01 0.01 0.01 0.02 0.05 0.08 0.11 0.13 0.14 0.14 0.14 0.13 0.11 0.09 0.10 0.13 0.17 0.21 0.26 0.28 0.32 0.40 0.48 0.56 0.58 0.63 0.72 0.77 0.84 0.99 1.03 0.96 0.95 1.06 1.09 0.87 0.64 0.47 0.36 0.33 0.31
0.01 0.01 0.01 0.02 0.02 0.02 0.02 0.04 0.06 0.09 0.12 0.14 0.15 0.15 0.14 0.12 0.09 0.09 0.11 0.14 0.19 0.25 0.33 0.37 0.42 0.52 0.61 0.65 0.73 0.84 0.93 1.02 1.10 1.09 1.12 1.23 1.23 1.09 0.83 0.55 0.43 0.35 0.31
0.05 0.05 0.06 0.06 0.06 0.05 0.05 0.05 0.06 0.08 0.11 0.15 0.17 0.17 0.17 0.15 0.09 0.09 0.12 0.12 0.14 0.17 0.24 0.31 0.32 0.37 0.47 0.59 0.67 0.78 0.94 1.09 1.25 1.31 1.33 1.49 1.45 1.24 0.97 0.67 0.54 0.43 0.36
0.05 0.05 0.05 0.05 0.05 0.06 0.06 0.06 0.07 0.10 0.15 0.20 0.21 0.22 0.21 0.14 0.10 0.09 0.10 0.12 0.15 0.17 0.21 0.26 0.27 0.28 0.31 0.38 0.48 0.62 0.77 0.93 1.14 1.32 1.45 1.55 1.59 1.44 1.23 0.99 0.68 0.46 0.38
0.03 0.03 0.03 0.05 0.05 0.07 0.07 0.08 0.10 0.14 0.19 0.24 0.26 0.28 0.27 0.27 0.19 0.13 0.09 0.12 0.15 0.19 0.22 0.24 0.20 0.17 0.24 0.28 0.32 0.40 0.51 0.63 0.79 1.00 1.20 1.30 1.47 1.57 1.41 1.13 0.84 0.62 0.46
0.02 0.03 0.04 0.06 0.08 0.09 0.13 0.15 0.19 0.22 0.24 0.27 0.28 0.31 0.34 0.32 0.24 0.16 0.13 0.14 0.18 0.20 0.23 0.25 0.24 0.22 0.23 0.28 0.32 0.31 0.32 0.37 0.46 0.58 0.76 1.00 1.21 1.41 1.43 1.32 1.20 0.95 0.71
0.03 0.05 0.06 0.09 0.11 0.14 0.16 0.22 0.29 0.32 0.31 0.35 0.38 0.39 0.42 0.41 0.31 0.19 0.15 0.18 0.24 0.24 0.25 0.27 0.30 0.26 0.21 0.21 0.28 0.30 0.29 0.28 0.30 0.39 0.53 0.75 1.00 1.18 1.35 1.33 1.21 1.06 0.84
0.07 0.08 0.10 0.14 0.19 0.21 0.24 0.29 0.33 0.38 0.39 0.41 0.44 0.49 0.53 0.53 0.42 0.24 0.19 0.22 0.29 0.32 0.36 0.37 0.34 0.30 0.26 0.19 0.23 0.27 0.25 0.25 0.27 0.28 0.35 0.49 0.65 0.91 1.11 1.12 1.03 0.94 0.80
0.11 0.11 0.13 0.17 0.23 0.25 0.32 0.36 0.38 0.40 0.42 0.46 0.49 0.54 0.62 0.65 0.53 0.28 0.21 0.27 0.34 0.40 0.41 0.41 0.41 0.34 0.27 0.21 0.21 0.25 0.23 0.26 0.32 0.33 0.34 0.42 0.55 0.72 0.92 1.02 1.00 0.86 0.73
0.13 0.14 0.14 0.17 0.18 0.21 0.31 0.35 0.39 0.46 0.49 0.51 0.58 0.65 0.71 0.74 0.65 0.43 0.24 0.24 0.36 0.47 0.52 0.53 0.52 0.44 0.35 0.29 0.23 0.21 0.21 0.23 0.33 0.38 0.39 0.41 0.48 0.57 0.73 0.94 1.05 0.98 0.80
0.16 0.16 0.17 0.18 0.22 0.27 0.33 0.34 0.36 0.40 0.41 0.46 0.62 0.76 0.83 0.84 0.74 0.52 0.33 0.24 0.30 0.43 0.54 0.65 0.65 0.53 0.47 0.41 0.33 0.25 0.23 0.23 0.29 0.36 0.34 0.36 0.40 0.48 0.63 0.88 1.08 1.18 1.08
0.20 0.19 0.20 0.22 0.24 0.28 0.36 0.38 0.37 0.37 0.37 0.43 0.60 0.75 0.84 0.84 0.76 0.57 0.42 0.33 0.33 0.41 0.48 0.60 0.68 0.69 0.65 0.59 0.49 0.36 0.27 0.28 0.29 0.34 0.38 0.41 0.48 0.55 0.65 0.72 0.90 1.05 1.11
0.24 0.23 0.23 0.26 0.28 0.29 0.35 0.38 0.33 0.34 0.30 0.31 0.48 0.70 0.77 0.72 0.59 0.46 0.41 0.42 0.41 0.45 0.53 0.71 0.85 0.88 0.88 0.81 0.67 0.53 0.41 0.37 0.35 0.38 0.45 0.48 0.52 0.54 0.58 0.60 0.70 0.82 0.82
0.30 0.27 0.26 0.27 0.28 0.30 0.34 0.34 0.26 0.19 0.16 0.14 0.19 0.34 0.47 0.42 0.34 0.31 0.29 0.30 0.29 0.31 0.43 0.69 0.95 1.03 1.04 1.00 0.87 0.68 0.54 0.47 0.43 0.43 0.46 0.48 0.48 0.52 0.55 0.58 0.61 0.69 0.70
0.34 0.31 0.29 0.27 0.27 0.27 0.29 0.34 0.38 0.33 0.18 0.13 0.11 0.14 0.19 0.20 0.23 0.30 0.31 0.25 0.21 0.20 0.30 0.51 0.77 0.96 1.03 1.04 0.95 0.78 0.62 0.55 0.55 0.51 0.50 0.49 0.46 0.46 0.51 0.57 0.58 0.62 0.67
0.30 0.29 0.27 0.25 0.25 0.26 0.29 0.33 0.35 0.42 0.42 0.33 0.19 0.12 0.11 0.11 0.16 0.32 0.40 0.29 0.21 0.19 0.24 0.37 0.59 0.84 0.93 0.96 0.93 0.84 0.73 0.68 0.65 0.60 0.56 0.53 0.49 0.46 0.45 0.49 0.51 0.53 0.57
0.29 0.25 0.21 0.20 0.22 0.25 0.30 0.31 0.32 0.38 0.48 0.55 0.48 0.23 0.13 0.13 0.17 0.38 0.51 0.36 0.27 0.26 0.25 0.30 0.44 0.65 0.79 0.86 0.85 0.80 0.74 0.71 0.69 0.65 0.61 0.57 0.52 0.50 0.46 0.43 0.45 0.50 0.51
0.24 0.20 0.15 0.15 0.18 0.24 0.27 0.27 0.31 0.41 0.51 0.62 0.62 0.36 0.18 0.17 0.24 0.47 0.59 0.45 0.36 0.34 0.29 0.29 0.36 0.51 0.65 0.76 0.77 0.72 0.72 0.71 0.70 0.66 0.63 0.59 0.52 0.50 0.49 0.44 0.42 0.43 0.42
0.23 0.19 0.14 0.13 0.18 0.21 0.24 0.28 0.33 0.43 0.54 0.62 0.56 0.30 0.17 0.19 0.30 0.48 0.61 0.49 0.39 0.38 0.35 0.32 0.35 0.46 0.55 0.64 0.64 0.61 0.63 0.68 0.66 0.63 0.59 0.57 0.53 0.50 0.49 0.48 0.42 0.41 0.41
0.20 0.17 0.15 0.16 0.19 0.21 0.22 0.29 0.35 0.47 0.57 0.61 0.48 0.26 0.18 0.24 0.33 0.45 0.49 0.43 0.38 0.35 0.33 0.33 0.36 0.44 0.48 0.51 0.51 0.52 0.57 0.61 0.60 0.57 0.56 0.55 0.52 0.49 0.49 0.48 0.45 0.45 0.45
0.19 0.17 0.16 0.16 0.18 0.15 0.19 0.28 0.32 0.39 0.50 0.53 0.41 0.30 0.27 0.33 0.35 0.40 0.44 0.42 0.39 0.36 0.34 0.36 0.39 0.42 0.44 0.43 0.39 0.42 0.48 0.51 0.49 0.49 0.51 0.51 0.50 0.49 0.47 0.44 0.43 0.43 0.42
0.18 0.17 0.15 0.15 0.14 0.15 0.18 0.22 0.24 0.28 0.37 0.40 0.34 0.32 0.33 0.36 0.36 0.36 0.38 0.38 0.38 0.38 0.37 0.37 0.37 0.40 0.42 0.42 0.40 0.40 0.41 0.43 0.44 0.46 0.46 0.46 0.45 0.46 0.44 0.40 0.39 0.40 0.41
0.19 0.18 0.16 0.15 0.14 0.14 0.16 0.19 0.24 0.27 0.29 0.28 0.28 0.31 0.35 0.37 0.36 0.36 0.35 0.36 0.36 0.36 0.35 0.37 0.38 0.39 0.39 0.37 0.35 0.34 0.33 0.33 0.38 0.44 0.46 0.46 0.44 0.44 0.42 0.38 0.39 0.42 0.43
0.18 0.22 0.21 0.20 0.19 0.17 0.17 0.19 0.24 0.24 0.20 0.19 0.22 0.29 0.35 0.37 0.37 0.36 0.33 0.32 0.34 0.36 0.36 0.37 0.36 0.37 0.36 0.33 0.30 0.30 0.30 0.30 0.34 0.40 0.41 0.45 0.45 0.43 0.42 0.42 0.41 0.43 0.43

GEFSGL_prec_meanprecacc_060.txt.gz
Total_Precipitation_Accumulation
0.02 0.02 0.02 0.06 0.10 0.14 0.18 0.19 0.20 0.19 0.18 0.16 0.15 0.14 0.13 0.13 0.15 0.18 0.20 0.22 0.25 0.31 0.38 0.44 0.48 0.55 0.62 0.63 0.68 0.70 0.73 0.83 0.78 0.66 0.77 0.86 0.77 0.60 0.50 0.51 0.52 0.53 0.50
0.02 0.02 0.01 0.01 0.03 0.06 0.11 0.14 0.17 0.17 0.15 0.15 0.15 0.13 0.11 0.11 0.14 0.19 0.22 0.22 0.25 0.28 0.36 0.46 0.50 0.51 0.57 0.64 0.76 0.79 0.81 0.93 0.92 0.78 0.85 0.94 0.85 0.74 0.60 0.53 0.44 0.43 0.44
0.01 0.01 0.01 0.01 0.01 0.02 0.05 0.08 0.11 0.13 0.15 0.14 0.15 0.13 0.11 0.10 0.11 0.14 0.19 0.23 0.27 0.29 0.33 0.42 0.50 0.58 0.61 0.65 0.74 0.78 0.85 1.00 1.04 0.96 0.95 1.06 1.09 0.88 0.66 0.51 0.42 0.42 0.39
0.01 0.01 0.01 0.02 0.02 0.02 0.02 0.04 0.06 0.09 0.13 0.14 0.15 0.15 0.14 0.12 0.10 0.10 0.12 0.16 0.21 0.27 0.35 0.39 0.43 0.55 0.64 0.68 0.76 0.87 0.95 1.04 1.12 1.10 1.13 1.24 1.24 1.10 0.84 0.57 0.48 0.45 0.42
0.05 0.05 0.06 0.06 0.06 0.05 0.05 0.05 0.06 0.09 0.11 0.15 0.18 0.18 0.18 0.15 0.10 0.10 0.13 0.13 0.15 0.19 0.26 0.33 0.34 0.39 0.49 0.61 0.68 0.79 0.96 1.11 1.27 1.33 1.34 1.50 1.45 1.25 0.99 0.70 0.58 0.52 0.48
0.05 0.05 0.05 0.05 0.05 0.06 0.06 0.06 0.07 0.10 0.15 0.20 0.22 0.22 0.21 0.15 0.10 0.09 0.10 0.12 0.15 0.18 0.22 0.28 0.29 0.29 0.32 0.38 0.48 0.62 0.77 0.94 1.15 1.33 1.46 1.56 1.61 1.47 1.26 1.02 0.71 0.52 0.48
0.03 0.03 0.03 0.05 0.05 0.07 0.07 0.08 0.10 0.14 0.19 0.25 0.27 0.28 0.28 0.28 0.20 0.13 0.09 0.12 0.15 0.19 0.23 0.26 0.21 0.18 0.26 0.30 0.34 0.42 0.52 0.63 0.79 1.00 1.20 1.31 1.48 1.60 1.46 1.17 0.89 0.68 0.55
0.02 0.03 0.04 0.06 0.08 0.09 0.13 0.15 0.19 0.23 0.24 0.28 0.29 0.31 0.35 0.34 0.24 0.16 0.13 0.14 0.18 0.21 0.24 0.27 0.27 0.25 0.27 0.32 0.37 0.36 0.37 0.40 0.48 0.59 0.76 1.00 1.21 1.42 1.46 1.35 1.25 1.00 0.77
0.03 0.05 0.06 0.09 0.11 0.14 0.16 0.22 0.29 0.32 0.31 0.35 0.38 0.41 0.44 0.43 0.33 0.19 0.15 0.18 0.24 0.25 0.26 0.30 0.34 0.31 0.25 0.22 0.30 0.32 0.32 0.31 0.32 0.40 0.53 0.75 1.00 1.18 1.35 1.34 1.24 1.10 0.89
0.07 0.08 0.10 0.14 0.19 0.21 0.24 0.29 0.33 0.38 0.39 0.42 0.45 0.50 0.55 0.56 0.46 0.25 0.19 0.22 0.30 0.33 0.38 0.40 0.37 0.31 0.27 0.19 0.25 0.30 0.28 0.28 0.31 0.31 0.38 0.51 0.66 0.91 1.11 1.13 1.04 0.96 0.85
0.11 0.11 0.13 0.17 0.23 0.26 0.32 0.37 0.39 0.41 0.43 0.47 0.50 0.56 0.65 0.68 0.57 0.29 0.21 0.27 0.35 0.41 0.42 0.43 0.44 0.35 0.27 0.21 0.21 0.27 0.24 0.28 0.35 0.37 0.39 0.47 0.59 0.73 0.93 1.02 1.00 0.87 0.75
0.13 0.14 0.14 0.17 0.19 0.21 0.31 0.36 0.40 0.47 0.49 0.52 0.60 0.68 0.75 0.79 0.69 0.45 0.24 0.24 0.36 0.48 0.52 0.55 0.56 0.44 0.35 0.29 0.23 0.21 0.21 0.23 0.34 0.39 0.41 0.43 0.50 0.59 0.75 0.96 1.07 0.99 0.82
0.16 0.16 0.17 0.18 0.22 0.28 0.34 0.35 0.36 0.41 0.42 0.47 0.64 0.79 0.85 0.88 0.79 0.54 0.34 0.25 0.30 0.43 0.54 0.66 0.66 0.53 0.47 0.42 0.33 0.25 0.23 0.23 0.30 0.37 0.35 0.37 0.41 0.50 0.66 0.92 1.13 1.24 1.12
0.21 0.20 0.21 0.23 0.25 0.29 0.37 0.38 0.38 0.38 0.37 0.44 0.62 0.77 0.86 0.87 0.81 0.64 0.48 0.37 0.36 0.43 0.50 0.62 0.69 0.69 0.65 0.59 0.49 0.37 0.28 0.28 0.30 0.36 0.40 0.43 0.51 0.59 0.69 0.76 0.96 1.12 1.17
0.25 0.24 0.24 0.27 0.29 0.29 0.35 0.39 0.33 0.34 0.30 0.32 0.48 0.71 0.78 0.74 0.61 0.48 0.42 0.45 0.44 0.49 0.56 0.72 0.87 0.91 0.93 0.86 0.73 0.59 0.47 0.43 0.39 0.41 0.49 0.53 0.57 0.60 0.64 0.67 0.78 0.91 0.90
0.32 0.29 0.28 0.28 0.29 0.31 0.34 0.35 0.28 0.20 0.17 0.14 0.19 0.35 0.47 0.42 0.34 0.31 0.29 0.30 0.29 0.31 0.44 0.69 0.96 1.06 1.09 1.08 0.97 0.80 0.66 0.58 0.53 0.52 0.54 0.56 0.55 0.59 0.62 0.67 0.70 0.78 0.79
0.36 0.32 0.30 0.28 0.28 0.27 0.29 0.35 0.39 0.34 0.19 0.13 0.11 0.14 0.20 0.21 0.23 0.30 0.31 0.25 0.21 0.20 0.30 0.51 0.79 1.00 1.09 1.13 1.07 0.90 0.74 0.68 0.69 0.64 0.61 0.59 0.57 0.56 0.61 0.66 0.68 0.72 0.77
0.32 0.31 0.29 0.27 0.26 0.27 0.29 0.33 0.35 0.42 0.43 0.35 0.21 0.14 0.13 0.12 0.16 0.33 0.40 0.29 0.22 0.19 0.25 0.39 0.63 0.89 0.99 1.05 1.02 0.95 0.84 0.80 0.78 0.73 0.68 0.64 0.60 0.57 0.56 0.59 0.61 0.63 0.67
0.31 0.27 0.23 0.22 0.23 0.26 0.30 0.31 0.33 0.39 0.49 0.57 0.52 0.28 0.17 0.14 0.17 0.38 0.51 0.36 0.29 0.31 0.32 0.37 0.51 0.72 0.86 0.94 0.94 0.90 0.85 0.83 0.81 0.79 0.75 0.71 0.65 0.63 0.59 0.55 0.57 0.62 0.65
0.27 0.22 0.18 0.17 0.20 0.25 0.28 0.28 0.32 0.42 0.53 0.65 0.67 0.42 0.24 0.20 0.27 0.52 0.65 0.50 0.42 0.41 0.38 0.38 0.43 0.58 0.72 0.84 0.85 0.82 0.83 0.82 0.82 0.80 0.76 0.72 0.65 0.62 0.62 0.58 0.57 0.58 0.56
0.24 0.20 0.16 0.14 0.19 0.22 0.25 0.29 0.34 0.45 0.57 0.66 0.62 0.37 0.22 0.21 0.32 0.54 0.70 0.60 0.50 0.49 0.45 0.41 0.43 0.53 0.63 0.73 0.74 0.72 0.73 0.79 0.78 0.75 0.72 0.70 0.66 0.62 0.62 0.61 0.57 0.57 0.58
0.20 0.18 0.16 0.17 0.20 0.23 0.24 0.31 0.38 0.50 0.61 0.66 0.54 0.33 0.24 0.28 0.37 0.51 0.56 0.51 0.47 0.44 0.41 0.40 0.44 0.51 0.56 0.60 0.62 0.64 0.68 0.71 0.70 0.69 0.70 0.68 0.66 0.63 0.63 0.60 0.58 0.60 0.62
0.20 0.18 0.18 0.18 0.21 0.19 0.23 0.32 0.36 0.44 0.54 0.58 0.47 0.39 0.36 0.41 0.43 0.46 0.50 0.48 0.45 0.42 0.40 0.43 0.46 0.48 0.50 0.50 0.47 0.53 0.59 0.61 0.59 0.60 0.65 0.66 0.65 0.64 0.62 0.57 0.55 0.56 0.57
0.18 0.18 0.17 0.17 0.18 0.20 0.24 0.28 0.30 0.33 0.42 0.46 0.41 0.43 0.43 0.45 0.43 0.42 0.42 0.42 0.43 0.43 0.43 0.42 0.43 0.46 0.48 0.50 0.50 0.50 0.50 0.51 0.53 0.56 0.59 0.62 0.62 0.64 0.61 0.55 0.54 0.55 0.56
0.20 0.19 0.18 0.19 0.19 0.20 0.23 0.26 0.30 0.33 0.35 0.36 0.37 0.41 0.44 0.44 0.43 0.41 0.39 0.39 0.40 0.39 0.39 0.40 0.43 0.44 0.45 0.43 0.43 0.41 0.39 0.38 0.42 0.51 0.56 0.60 0.61 0.61 0.60 0.55 0.55 0.60 0.61
0.20 0.24 0.25 0.27 0.27 0.26 0.26 0.27 0.31 0.31 0.29 0.29 0.32 0.39 0.44 0.45 0.43 0.40 0.36 0.34 0.36 0.38 0.39 0.40 0.40 0.41 0.41 0.39 0.36 0.34 0.33 0.32 0.36 0.42 0.45 0.53 0.59 0.60 0.60 0.60 0.59 0.62 0.62

GEFSGL_prec_meanprecacc_066.txt.gz
Total_Precipitation_Accumulation
0.02 0.02 0.02 0.06 0.10 0.14 0.18 0.19 0.20 0.19 0.18 0.16 0.15 0.14 0.13 0.13 0.15 0.18 0.20 0.22 0.25 0.31 0.38 0.44 0.48 0.55 0.62 0.63 0.68 0.70 0.73 0.84 0.78 0.66 0.77 0.86 0.78 0.60 0.51 0.51 0.53 0.53 0.51
0.02 0.02 0.01 0.01 0.03 0.06 0.11 0.14 0.17 0.17 0.15 0.15 0.15 0.13 0.11 0.11 0.14 0.19 0.22 0.22 0.25 0.29 0.36 0.46 0.50 0.51 0.57 0.64 0.76 0.79 0.81 0.93 0.92 0.78 0.85 0.94 0.85 0.74 0.61 0.53 0.44 0.43 0.44
0.01 0.01 0.01 0.01 0.01 0.02 0.05 0.08 0.11 0.13 0.15 0.14 0.15 0.13 0.11 0.10 0.11 0.14 0.19 0.23 0.27 0.29 0.34 0.42 0.50 0.58 0.61 0.65 0.75 0.79 0.85 1.00 1.04 0.96 0.96 1.06 1.09 0.88 0.66 0.51 0.42 0.42 0.39
0.01 0.01 0.01 0.02 0.02 0.02 0.02 0.04 0.06 0.09 0.13 0.14 0.15 0.15 0.14 0.12 0.10 0.10 0.12 0.16 0.21 0.27 0.35 0.39 0.43 0.55 0.64 0.68 0.76 0.88 0.96 1.04 1.12 1.10 1.13 1.24 1.24 1.10 0.84 0.57 0.48 0.45 0.43
0.05 0.05 0.06 0.06 0.06 0.05 0.05 0.05 0.06 0.09 0.11 0.15 0.18 0.18 0.18 0.15 0.10 0.10 0.13 0.13 0.15 0.19 0.26 0.33 0.34 0.39 0.49 0.61 0.69 0.79 0.96 1.12 1.27 1.33 1.34 1.50 1.45 1.25 0.99 0.70 0.58 0.52 0.49
0.05 0.05 0.05 0.05 0.05 0.06 0.06 0.06 0.07 0.10 0.15 0.20 0.22 0.22 0.22 0.15 0.10 0.09 0.10 0.12 0.15 0.18 0.22 0.28 0.29 0.29 0.32 0.38 0.48 0.62 0.77 0.94 1.15 1.33 1.46 1.56 1.61 1.47 1.26 1.02 0.71 0.53 0.48
0.03 0.03 0.03 0.05 0.05 0.07 0.07 0.08 0.10 0.14 0.19 0.25 0.27 0.28 0.28 0.28 0.20 0.13 0.09 0.12 0.15 0.19 0.23 0.26 0.21 0.18 0.26 0.30 0.35 0.42 0.52 0.64 0.79 1.00 1.20 1.31 1.49 1.60 1.46 1.17 0.89 0.69 0.55
0.02 0.03 0.04 0.06 0.08 0.09 0.13 0.15 0.19 0.23 0.24 0.28 0.29 0.31 0.35 0.34 0.25 0.16 0.13 0.14 0.18 0.21 0.24 0.27 0.27 0.25 0.27 0.32 0.37 0.36 0.37 0.40 0.48 0.59 0.76 1.00 1.21 1.42 1.46 1.35 1.25 1.00 0.77
0.03 0.05 0.06 0.09 0.11 0.14 0.16 0.22 0.29 0.32 0.31 0.35 0.38 0.41 0.44 0.43 0.33 0.19 0.15 0.18 0.24 0.25 0.26 0.30 0.34 0.31 0.26 0.22 0.30 0.33 0.32 0.31 0.32 0.40 0.53 0.75 1.00 1.18 1.35 1.34 1.24 1.10 0.89
0.07 0.09 0.10 0.14 0.19 0.21 0.24 0.29 0.33 0.39 0.39 0.42 0.45 0.50 0.55 0.56 0.46 0.25 0.19 0.22 0.30 0.33 0.38 0.40 0.37 0.31 0.27 0.19 0.25 0.30 0.29 0.28 0.31 0.32 0.38 0.51 0.66 0.91 1.11 1.13 1.04 0.96 0.85
0.12 0.13 0.14 0.17 0.23 0.26 0.32 0.37 0.39 0.41 0.43 0.47 0.51 0.56 0.65 0.68 0.57 0.29 0.22 0.28 0.35 0.41 0.42 0.43 0.44 0.35 0.27 0.21 0.21 0.27 0.25 0.28 0.35 0.38 0.39 0.47 0.59 0.73 0.93 1.02 1.00 0.87 0.75
0.15 0.15 0.15 0.18 0.19 0.22 0.32 0.37 0.42 0.48 0.50 0.53 0.61 0.68 0.75 0.79 0.69 0.46 0.25 0.25 0.37 0.48 0.53 0.55 0.56 0.44 0.35 0.29 0.23 0.21 0.21 0.23 0.34 0.39 0.41 0.43 0.50 0.59 0.75 0.96 1.07 0.99 0.82
0.19 0.19 0.19 0.20 0.25 0.30 0.36 0.36 0.38 0.42 0.43 0.48 0.65 0.80 0.86 0.89 0.80 0.55 0.35 0.26 0.31 0.44 0.55 0.66 0.66 0.53 0.47 0.42 0.33 0.25 0.23 0.23 0.30 0.37 0.35 0.37 0.41 0.50 0.66 0.92 1.13 1.24 1.12
0.25 0.25 0.25 0.27 0.28 0.31 0.39 0.40 0.39 0.39 0.39 0.46 0.65 0.80 0.88 0.90 0.83 0.66 0.49 0.38 0.36 0.43 0.51 0.62 0.69 0.69 0.65 0.59 0.49 0.37 0.28 0.28 0.30 0.36 0.40 0.43 0.51 0.59 0.69 0.76 0.96 1.12 1.18
0.29 0.29 0.29 0.31 0.31 0.31 0.37 0.40 0.35 0.35 0.33 0.35 0.53 0.75 0.82 0.76 0.63 0.49 0.43 0.46 0.45 0.50 0.56 0.73 0.87 0.91 0.93 0.86 0.73 0.59 0.47 0.43 0.39 0.41 0.49 0.53 0.57 0.60 0.64 0.67 0.78 0.91 0.91
0.36 0.33 0.32 0.31 0.32 0.33 0.36 0.36 0.29 0.23 0.20 0.19 0.25 0.40 0.51 0.46 0.38 0.34 0.31 0.32 0.30 0.31 0.44 0.69 0.96 1.06 1.09 1.08 0.97 0.80 0.67 0.59 0.54 0.52 0.55 0.57 0.56 0.59 0.63 0.67 0.71 0.79 0.79
0.40 0.35 0.33 0.30 0.30 0.29 0.32 0.37 0.41 0.37 0.22 0.17 0.15 0.18 0.24 0.25 0.27 0.34 0.34 0.27 0.22 0.21 0.30 0.51 0.79 1.00 1.09 1.13 1.07 0.90 0.74 0.69 0.70 0.65 0.62 0.60 0.58 0.57 0.62 0.67 0.69 0.73 0.77
0.33 0.32 0.31 0.28 0.28 0.29 0.32 0.36 0.39 0.46 0.47 0.38 0.24 0.16 0.16 0.16 0.21 0.38 0.46 0.32 0.24 0.20 0.26 0.40 0.64 0.90 1.00 1.05 1.03 0.97 0.85 0.81 0.79 0.74 0.69 0.65 0.61 0.59 0.57 0.59 0.62 0.64 0.68
0.32 0.28 0.24 0.23 0.25 0.28 0.32 0.34 0.35 0.42 0.52 0.60 0.54 0.31 0.22 0.20 0.24 0.45 0.57 0.39 0.31 0.33 0.34 0.38 0.52 0.73 0.87 0.95 0.95 0.92 0.86 0.84 0.83 0.81 0.76 0.72 0.67 0.66 0.61 0.56 0.59 0.64 0.66
0.27 0.22 0.18 0.18 0.20 0.26 0.29 0.30 0.35 0.45 0.56 0.69 0.71 0.47 0.30 0.28 0.34 0.59 0.70 0.54 0.45 0.44 0.41 0.41 0.46 0.60 0.75 0.85 0.87 0.83 0.84 0.83 0.83 0.81 0.77 0.73 0.67 0.64 0.64 0.62 0.60 0.61 0.57
0.24 0.20 0.16 0.15 0.19 0.23 0.27 0.31 0.36 0.47 0.60 0.69 0.65 0.42 0.30 0.30 0.39 0.61 0.77 0.66 0.55 0.52 0.48 0.43 0.45 0.55 0.65 0.75 0.75 0.73 0.74 0.80 0.79 0.76 0.73 0.72 0.68 0.64 0.64 0.65 0.61 0.62 0.62
0.20 0.18 0.17 0.18 0.21 0.24 0.25 0.33 0.40 0.53 0.64 0.70 0.59 0.40 0.33 0.37 0.45 0.59 0.64 0.58 0.53 0.48 0.43 0.42 0.46 0.54 0.58 0.62 0.64 0.66 0.70 0.73 0.72 0.71 0.72 0.71 0.68 0.65 0.65 0.63 0.61 0.63 0.66
0.20 0.18 0.18 0.19 0.21 0.20 0.24 0.34 0.39 0.48 0.59 0.66 0.56 0.49 0.47 0.53 0.54 0.56 0.58 0.55 0.51 0.46 0.42 0.45 0.48 0.50 0.52 0.52 0.50 0.55 0.62 0.63 0.61 0.63 0.69 0.70 0.69 0.67 0.65 0.61 0.58 0.59 0.61
0.19 0.18 0.17 0.18 0.19 0.22 0.26 0.30 0.34 0.39 0.50 0.56 0.52 0.55 0.55 0.57 0.54 0.53 0.53 0.52 0.49 0.46 0.45 0.44 0.45 0.47 0.50 0.51 0.51 0.52 0.52 0.53 0.54 0.58 0.62 0.65 0.66 0.68 0.65 0.58 0.58 0.59 0.60
0.20 0.20 0.19 0.20 0.20 0.22 0.26 0.30 0.36 0.42 0.46 0.48 0.51 0.54 0.56 0.57 0.55 0.53 0.50 0.48 0.46 0.44 0.41 0.42 0.45 0.46 0.47 0.45 0.45 0.43 0.40 0.39 0.43 0.52 0.58 0.63 0.64 0.66 0.64 0.59 0.60 0.64 0.65
0.20 0.25 0.26 0.28 0.29 0.29 0.32 0.35 0.39 0.41 0.42 0.44 0.47 0.53 0.56 0.56 0.55 0.52 0.46 0.41 0.41 0.42 0.41 0.42 0.41 0.42 0.42 0.41 0.37 0.35 0.34 0.33 0.37 0.43 0.47 0.55 0.62 0.64 0.65 0.65 0.64 0.67 0.67

GEFSGL_prec_meanprecacc_072.txt.gz
Total_Precipitation_Accumulation
0.02 0.02 0.02 0.06 0.10 0.14 0.18 0.19 0.20 0.19 0.18 0.16 0.15 0.14 0.13 0.13 0.15 0.18 0.20 0.22 0.25 0.31 0.38 0.44 0.48 0.55 0.62 0.63 0.68 0.70 0.73 0.84 0.78 0.66 0.77 0.86 0.78 0.60 0.51 0.51 0.53 0.53 0.51
0.03 0.02 0.01 0.02 0.03 0.06 0.11 0.14 0.17 0.17 0.15 0.15 0.15 0.13 0.11 0.11 0.14 0.19 0.22 0.22 0.25 0.29 0.36 0.46 0.50 0.51 0.57 0.64 0.76 0.79 0.81 0.93 0.92 0.78 0.85 0.94 0.85 0.74 0.61 0.53 0.44 0.43 0.44
0.01 0.01 0.01 0.01 0.01 0.02 0.05 0.08 0.11 0.13 0.15 0.14 0.15 0.13 0.11 0.10 0.11 0.14 0.19 0.23 0.27 0.29 0.34 0.42 0.50 0.58 0.61 0.65 0.75 0.79 0.85 1.00 1.04 0.96 0.96 1.06 1.09 0.88 0.66 0.51 0.42 0.42 0.39
0.01 0.01 0.01 0.02 0.02 0.02 0.02 0.04 0.06 0.09 0.13 0.14 0.15 0.15 0.14 0.12 0.10 0.10 0.12 0.16 0.21 0.27 0.35 0.39 0.43 0.55 0.64 0.68 0.76 0.88 0.96 1.04 1.12 1.10 1.13 1.24 1.24 1.10 0.84 0.57 0.48 0.45 0.43
0.05 0.06 0.06 0.06 0.06 0.05 0.05 0.05 0.06 0.09 0.11 0.15 0.18 0.18 0.18 0.15 0.10 0.10 0.13 0.13 0.15 0.19 0.26 0.33 0.34 0.39 0.49 0.61 0.69 0.79 0.96 1.12 1.27 1.33 1.34 1.50 1.45 1.25 0.99 0.70 0.58 0.52 0.49
0.06 0.06 0.05 0.05 0.06 0.06 0.06 0.06 0.07 0.10 0.15 0.20 0.22 0.22 0.22 0.15 0.10 0.09 0.10 0.12 0.15 0.18 0.22 0.28 0.29 0.29 0.32 0.38 0.48 0.62 0.77 0.94 1.15 1.33 1.46 1.56 1.61 1.47 1.26 1.02 0.71 0.53 0.48
0.03 0.03 0.04 0.05 0.06 0.07 0.07 0.08 0.10 0.14 0.19 0.25 0.27 0.28 0.28 0.28 0.20 0.13 0.09 0.12 0.15 0.19 0.23 0.26 0.21 0.18 0.26 0.30 0.35 0.42 0.52 0.64 0.79 1.00 1.20 1.31 1.49 1.60 1.46 1.17 0.89 0.69 0.55
0.03 0.04 0.05 0.07 0.08 0.10 0.13 0.15 0.19 0.23 0.24 0.28 0.29 0.31 0.35 0.34 0.25 0.16 0.13 0.14 0.18 0.21 0.24 0.27 0.27 0.25 0.27 0.32 0.37 0.36 0.37 0.40 0.48 0.59 0.76 1.00 1.21 1.42 1.46 1.35 1.25 1.00 0.77
0.05 0.06 0.08 0.10 0.12 0.14 0.17 0.22 0.29 0.32 0.31 0.35 0.38 0.41 0.44 0.44 0.33 0.19 0.15 0.18 0.24 0.25 0.27 0.30 0.34 0.31 0.26 0.22 0.31 0.33 0.32 0.31 0.32 0.40 0.53 0.75 1.00 1.18 1.35 1.34 1.24 1.10 0.89
0.10 0.12 0.13 0.16 0.21 0.22 0.25 0.30 0.35 0.40 0.40 0.43 0.46 0.51 0.56 0.57 0.47 0.27 0.20 0.23 0.30 0.33 0.38 0.40 0.37 0.31 0.27 0.19 0.25 0.30 0.29 0.28 0.31 0.32 0.38 0.51 0.66 0.91 1.11 1.13 1.04 0.96 0.85
0.17 0.17 0.18 0.21 0.26 0.29 0.35 0.40 0.42 0.44 0.46 0.50 0.53 0.59 0.67 0.70 0.58 0.31 0.23 0.28 0.36 0.42 0.43 0.43 0.44 0.35 0.27 0.21 0.22 0.27 0.25 0.28 0.35 0.38 0.39 0.47 0.59 0.73 0.93 1.02 1.00 0.87 0.75
0.20 0.21 0.21 0.24 0.25 0.27 0.37 0.41 0.46 0.52 0.54 0.56 0.63 0.70 0.76 0.80 0.70 0.47 0.26 0.26 0.38 0.49 0.53 0.55 0.56 0.45 0.35 0.29 0.23 0.21 0.21 0.23 0.34 0.39 0.41 0.43 0.50 0.59 0.75 0.96 1.07 0.99 0.82
0.23 0.23 0.24 0.25 0.30 0.35 0.39 0.39 0.40 0.44 0.45 0.49 0.66 0.81 0.87 0.90 0.81 0.56 0.36 0.27 0.33 0.45 0.56 0.67 0.67 0.54 0.48 0.42 0.34 0.26 0.23 0.23 0.30 0.37 0.35 0.37 0.41 0.50 0.66 0.92 1.13 1.24 1.12
0.28 0.28 0.29 0.30 0.31 0.34 0.41 0.41 0.40 0.40 0.40 0.47 0.66 0.81 0.89 0.90 0.84 0.67 0.50 0.39 0.38 0.45 0.52 0.63 0.70 0.71 0.67 0.60 0.50 0.37 0.28 0.29 0.30 0.36 0.40 0.43 0.51 0.59 0.69 0.76 0.96 1.12 1.18
0.31 0.30 0.31 0.33 0.33 0.33 0.39 0.42 0.36 0.37 0.34 0.36 0.53 0.76 0.83 0.77 0.64 0.51 0.45 0.47 0.46 0.51 0.58 0.74 0.88 0.93 0.94 0.87 0.74 0.60 0.48 0.44 0.40 0.41 0.49 0.53 0.57 0.60 0.64 0.67 0.78 0.91 0.91
0.37 0.34 0.33 0.33 0.33 0.34 0.37 0.37 0.30 0.23 0.20 0.19 0.25 0.40 0.52 0.46 0.38 0.35 0.32 0.34 0.32 0.34 0.46 0.71 0.97 1.07 1.11 1.09 0.98 0.81 0.68 0.59 0.55 0.53 0.55 0.57 0.56 0.60 0.63 0.67 0.71 0.79 0.80
0.40 0.35 0.33 0.30 0.30 0.29 0.32 0.38 0.41 0.37 0.23 0.17 0.15 0.19 0.25 0.26 0.28 0.35 0.36 0.30 0.25 0.23 0.32 0.53 0.81 1.02 1.11 1.16 1.09 0.91 0.75 0.70 0.71 0.66 0.62 0.60 0.58 0.57 0.62 0.67 0.69 0.73 0.78
0.33 0.32 0.31 0.28 0.28 0.29 0.32 0.36 0.39 0.46 0.47 0.38 0.24 0.17 0.17 0.17 0.23 0.40 0.48 0.34 0.26 0.23 0.29 0.43 0.67 0.93 1.03 1.08 1.06 0.98 0.87 0.82 0.80 0.75 0.70 0.65 0.62 0.59 0.57 0.60 0.62 0.64 0.69
0.32 0.28 0.24 0.24 0.25 0.28 0.32 0.34 0.35 0.42 0.52 0.60 0.55 0.32 0.23 0.21 0.25 0.46 0.59 0.42 0.34 0.36 0.37 0.42 0.56 0.77 0.91 0.98 0.98 0.94 0.88 0.86 0.84 0.82 0.77 0.73 0.67 0.66 0.62 0.57 0.59 0.64 0.67
0.27 0.22 0.18 0.18 0.20 0.26 0.29 0.30 0.35 0.45 0.56 0.69 0.71 0.48 0.31 0.29 0.35 0.60 0.72 0.57 0.48 0.47 0.45 0.46 0.52 0.66 0.80 0.90 0.90 0.86 0.86 0.84 0.84 0.82 0.78 0.74 0.67 0.65 0.65 0.62 0.61 0.62 0.58
0.24 0.20 0.16 0.15 0.19 0.23 0.27 0.31 0.36 0.47 0.60 0.69 0.66 0.43 0.31 0.32 0.42 0.64 0.81 0.70 0.59 0.58 0.54 0.49 0.51 0.60 0.69 0.78 0.79 0.75 0.77 0.82 0.81 0.78 0.74 0.73 0.69 0.65 0.65 0.66 0.62 0.64 0.64
0.20 0.18 0.17 0.18 0.21 0.24 0.25 0.33 0.40 0.53 0.64 0.71 0.60 0.41 0.35 0.40 0.50 0.65 0.71 0.66 0.62 0.59 0.54 0.52 0.54 0.60 0.63 0.66 0.67 0.69 0.72 0.76 0.75 0.74 0.75 0.72 0.69 0.66 0.66 0.64 0.62 0.65 0.69
0.20 0.18 0.18 0.19 0.21 0.20 0.24 0.34 0.39 0.48 0.60 0.67 0.58 0.51 0.50 0.58 0.60 0.64 0.69 0.68 0.65 0.61 0.55 0.55 0.56 0.58 0.58 0.57 0.54 0.59 0.64 0.65 0.63 0.65 0.71 0.72 0.71 0.69 0.67 0.62 0.59 0.61 0.63
0.19 0.18 0.17 0.18 0.19 0.22 0.26 0.31 0.34 0.40 0.51 0.59 0.56 0.60 0.63 0.66 0.65 0.66 0.68 0.67 0.65 0.64 0.60 0.54 0.52 0.53 0.54 0.55 0.54 0.55 0.54 0.55 0.56 0.60 0.64 0.67 0.68 0.70 0.67 0.61 0.60 0.61 0.62
0.20 0.20 0.19 0.20 0.20 0.22 0.26 0.32 0.38 0.44 0.50 0.54 0.59 0.63 0.67 0.67 0.67 0.69 0.65 0.63 0.62 0.59 0.55 0.52 0.54 0.54 0.52 0.48 0.47 0.45 0.42 0.40 0.45 0.53 0.59 0.65 0.66 0.67 0.66 0.62 0.63 0.67 0.68
0.20 0.25 0.26 0.28 0.30 0.30 0.33 0.37 0.42 0.45 0.48 0.51 0.56 0.63 0.67 0.67 0.67 0.65 0.60 0.56 0.56 0.56 0.54 0.51 0.49 0.49 0.47 0.44 0.40 0.38 0.36 0.34 0.38 0.44 0.48 0.56 0.64 0.65 0.66 0.67 0.67 0.71 0.71